Wind_Speed
22 23 23 23 22 22 23 23 23 24 25 25 26 26 25 25 26 25 25 26 26 27 28 28 28 28 28 28 28 27 28 28 29 29 28 28 28 28 28 28 28 29 29
23 23 23 23 23 23 23 24 25 25 25 25 26 27 26 26 26 26 26 26 26 27 28 28 29 30 29 29 29 29 30 30 30 30 30 30 30 30 30 30 29 30 31
24 23 22 23 23 24 24 25 25 25 26 26 26 26 26 25 25 25 26 26 27 28 29 29 30 29 31 31 30 31 31 32 32 31 31 31 31 31 31 31 31 31 31
23 22 23 23 24 25 25 25 25 25 25 25 26 26 25 25 25 26 26 27 27 28 29 30 30 31 32 31 31 32 31 32 33 33 34 34 33 33 32 32 33 32 32
24 24 24 25 25 26 25 26 26 26 26 26 26 26 25 25 26 26 26 27 27 28 29 30 31 32 33 33 32 32 33 33 34 34 34 35 34 34 33 34 34 34 34
25 25 24 24 25 25 26 26 26 26 26 26 26 26 26 26 26 26 26 27 27 28 29 29 31 32 32 33 33 32 32 34 35 34 34 34 34 34 35 35 35 35 34
24 24 24 24 24 25 25 26 25 25 26 26 25 25 25 26 26 26 27 27 28 29 30 30 30 31 31 32 33 33 33 33 33 35 35 35 35 34 34 35 35 35 34
24 25 24 24 25 25 25 25 25 25 25 25 24 24 25 25 26 27 28 28 28 28 28 29 29 29 30 30 31 32 32 33 33 35 35 34 34 35 35 36 36 36 36
24 23 23 23 24 24 24 24 25 24 24 25 25 25 24 24 25 26 27 27 27 27 28 27 27 28 28 29 30 31 31 32 32 34 34 34 35 35 35 36 36 36 37
24 24 23 24 25 24 24 24 24 24 24 24 24 24 25 25 24 24 25 26 26 27 27 27 27 27 28 28 28 29 30 32 32 32 33 33 34 34 35 36 36 36 36
23 23 23 24 25 24 23 23 23 23 23 23 23 24 25 25 25 25 25 25 25 26 27 27 27 26 27 28 28 29 29 30 31 32 33 34 34 34 34 35 36 35 36
22 23 24 23 22 22 22 22 22 23 23 24 24 24 25 25 25 25 25 25 25 24 25 26 26 25 26 27 28 29 29 30 30 31 32 34 35 35 36 36 36 36 36
22 23 23 22 21 22 21 22 22 23 23 23 23 23 24 25 25 25 25 25 24 24 24 24 24 25 25 26 27 28 29 29 30 31 32 32 34 34 35 36 38 38 38
21 21 21 20 20 21 21 21 22 22 23 23 23 24 24 25 25 25 25 25 24 23 23 23 23 24 25 25 26 28 28 29 30 32 32 32 34 35 35 35 36 37 38
18 18 18 19 20 21 21 21 21 22 22 23 24 25 25 25 26 26 25 24 23 22 22 22 22 23 24 25 26 27 28 29 30 31 33 34 34 34 35 35 35 36 38
17 18 19 20 20 21 22 21 21 22 22 23 23 23 24 25 26 26 24 24 23 22 22 22 22 23 24 24 25 27 27 28 30 31 33 34 34 34 35 36 35 36 37
17 18 19 20 21 21 21 21 22 22 22 23 23 23 23 24 24 24 24 23 23 22 22 21 21 22 22 23 24 26 27 28 29 30 31 32 33 34 34 35 35 36 37
18 18 18 19 20 20 21 21 22 22 23 23 23 23 23 23 23 23 23 22 22 22 22 21 21 21 22 23 24 25 26 27 28 28 30 31 32 34 35 35 36 36 36
17 18 18 18 19 20 20 21 21 22 23 23 24 24 23 24 24 24 23 23 23 23 23 23 22 22 23 23 24 25 27 27 28 28 29 30 31 32 33 35 35 36 36
16 18 18 18 19 20 20 20 21 22 23 23 24 24 24 24 24 24 24 24 24 23 23 23 23 23 23 24 24 24 25 27 28 29 29 30 30 31 31 32 33 35 36
16 16 16 17 18 19 20 20 21 22 22 23 23 24 24 24 25 25 25 24 24 23 23 23 23 23 23 24 24 25 25 26 27 28 28 28 29 30 30 31 31 32 35
14 15 16 16 17 18 19 20 21 21 22 23 24 24 24 24 25 25 25 24 24 24 24 24 24 24 24 24 24 24 24 25 26 27 27 28 29 28 28 29 30 31 33
13 14 15 15 17 18 19 20 21 22 23 23 24 24 24 25 25 24 24 24 24 24 24 24 24 24 24 23 23 24 25 25 25 26 26 27 28 28 29 30 31 31 32
13 14 14 15 16 18 19 20 21 22 23 24 24 24 24 25 25 24 24 24 24 23 23 24 24 23 23 24 24 24 25 25 25 26 26 27 27 28 28 28 30 31 32
12 13 13 15 16 18 19 20 21 21 23 24 24 24 24 24 24 24 24 24 23 23 22 22 23 23 23 23 23 23 24 24 25 24 26 27 26 27 28 29 29 30 31
12 13 14 15 17 18 19 20 21 22 23 24 24 24 24 25 25 24 24 23 23 22 22 21 21 21 22 22 22 22 23 23 23 24 26 27 27 28 28 28 29 30 30
Wind_Direction
294 294 293 293 292 291 291 292 290 289 290 289 287 284 283 283 281 280 278 276 273 271 268 265 262 261 258 256 254 253 251 248 247 247 246 243 243 242 241 243 243 243 243
293 293 292 291 290 291 291 291 290 289 289 288 287 286 284 282 282 280 277 276 275 272 269 266 263 261 258 257 255 253 251 249 247 246 246 244 243 243 242 243 243 244 243
295 293 292 291 292 293 292 293 290 289 289 288 288 288 286 285 283 280 278 278 276 273 269 266 264 262 260 259 256 253 251 248 247 247 246 245 244 244 244 243 243 245 244
297 294 292 292 294 296 296 293 294 291 289 289 290 291 287 284 283 281 278 278 277 273 270 267 265 264 261 259 256 253 252 249 247 247 247 246 244 244 244 244 244 245 244
295 293 293 294 294 295 296 296 295 295 293 291 292 290 287 286 283 282 281 279 277 275 272 268 265 264 261 258 257 255 252 250 248 247 247 246 245 244 244 244 244 243 243
295 294 293 295 295 296 297 298 296 294 294 294 293 292 290 290 287 284 283 280 277 275 273 270 267 266 263 259 257 255 254 251 249 246 246 246 246 245 244 243 243 242 243
296 295 295 297 298 299 299 298 298 297 295 295 294 292 291 293 292 287 283 280 277 276 274 272 270 265 263 261 258 256 253 251 248 246 245 245 245 245 245 243 243 242 242
293 295 295 296 297 299 300 300 300 299 297 295 295 294 293 294 294 291 287 283 281 278 275 272 270 267 264 261 257 256 254 252 250 247 245 244 244 244 244 243 243 242 242
294 294 295 296 297 299 299 299 301 300 299 297 296 296 295 295 296 294 290 286 283 279 275 272 270 267 264 261 257 255 252 251 250 247 246 246 245 245 243 242 241 241 241
293 293 294 295 298 299 299 300 301 301 300 299 298 297 297 296 297 296 293 288 283 279 276 272 269 265 263 260 257 255 254 252 249 247 246 245 244 245 244 242 243 243 240
292 294 295 296 298 299 300 301 302 302 303 302 300 299 299 298 297 295 294 291 286 279 273 272 269 265 261 259 257 255 253 252 250 246 245 244 245 244 244 244 243 243 241
294 293 294 296 297 299 300 300 302 302 303 303 302 300 299 299 299 298 295 294 289 282 275 271 267 264 261 258 255 254 254 252 250 247 245 246 245 245 245 243 242 240 240
294 292 292 296 300 302 301 302 303 303 304 305 303 303 302 301 300 299 296 294 290 284 277 272 268 265 262 259 256 256 256 253 251 247 246 246 246 247 245 244 244 243 242
296 295 293 298 302 304 305 305 305 304 303 303 304 303 304 302 301 301 298 294 289 283 279 275 270 267 264 261 259 257 256 255 252 250 248 248 247 247 247 247 246 245 244
301 301 300 302 304 307 306 305 306 306 306 306 306 306 304 304 303 302 299 295 290 284 281 276 271 267 266 263 261 259 258 257 255 253 250 250 250 249 247 247 246 246 245
301 304 305 305 306 308 307 307 307 307 308 309 309 310 310 306 304 302 300 297 294 289 282 278 270 268 269 266 263 262 260 258 256 254 251 250 250 249 249 248 247 248 246
302 304 304 304 305 307 307 308 310 309 309 310 311 313 313 312 309 306 302 299 295 290 286 283 278 274 271 268 265 263 261 260 257 254 253 252 250 250 249 249 248 248 247
303 305 306 306 307 309 310 310 311 312 312 312 313 314 313 313 312 310 305 302 298 292 288 285 281 278 275 271 267 264 263 260 257 256 254 253 252 251 251 250 250 249 247
301 306 309 309 311 312 313 312 312 313 314 315 315 315 314 313 312 312 308 303 298 293 289 284 281 278 275 273 269 266 264 262 259 256 256 256 255 255 254 253 251 248 247
303 307 310 310 313 315 315 316 316 316 316 317 317 316 315 314 313 311 308 303 297 294 291 286 282 280 278 277 272 270 267 263 259 258 257 256 258 257 255 253 251 249 247
305 308 312 313 316 318 317 318 319 318 318 320 320 319 316 314 312 310 308 304 298 293 290 288 285 282 280 280 277 273 271 266 264 262 259 259 259 258 256 253 251 249 248
306 310 313 315 317 318 320 322 323 322 322 322 322 322 320 317 313 311 309 306 301 294 291 289 287 284 283 282 280 277 273 270 267 263 261 259 259 258 256 256 254 252 250
309 312 316 318 318 319 322 325 325 324 324 323 323 322 321 320 318 314 313 310 305 298 295 293 290 288 285 284 282 279 276 272 268 264 261 258 257 257 257 257 256 253 251
315 317 319 321 322 324 325 326 326 325 325 325 325 323 323 322 321 319 316 313 308 302 298 295 293 290 289 287 284 281 276 271 268 265 262 260 258 258 257 256 255 255 253
319 323 326 329 329 330 330 330 329 328 329 329 327 326 326 325 322 320 319 316 312 307 302 299 297 293 290 289 288 285 280 274 269 266 263 260 259 259 259 258 256 255 255
322 330 332 335 335 335 335 334 333 331 330 330 330 329 330 329 325 322 321 319 315 312 306 302 300 296 292 289 289 288 285 281 274 269 266 264 263 262 261 261 259 255 253
Height
5840 5838 5836 5834 5832 5830 5828 5827 5824 5822 5820 5818 5816 5814 5812 5811 5809 5808 5807 5806 5805 5805 5804 5804 5804 5804 5804 5805 5805 5806 5807 5809 5810 5812 5813 5815 5817 5819 5821 5823 5825 5827 5829
5835 5833 5830 5828 5827 5825 5823 5821 5819 5817 5814 5812 5810 5808 5806 5804 5802 5801 5800 5799 5798 5797 5797 5796 5795 5796 5796 5797 5797 5799 5800 5801 5803 5805 5806 5808 5810 5813 5815 5817 5819 5821 5823
5829 5827 5825 5823 5821 5819 5816 5814 5812 5810 5808 5806 5803 5801 5799 5797 5796 5794 5793 5792 5791 5790 5789 5788 5788 5788 5788 5788 5789 5791 5792 5793 5795 5797 5799 5801 5803 5805 5807 5810 5812 5814 5817
5823 5821 5818 5816 5814 5812 5809 5807 5804 5802 5801 5799 5797 5794 5792 5791 5789 5787 5785 5784 5783 5782 5781 5780 5780 5780 5780 5780 5781 5782 5784 5785 5787 5789 5791 5793 5795 5798 5800 5802 5805 5807 5809
5818 5815 5813 5811 5808 5806 5804 5801 5799 5796 5794 5792 5790 5788 5786 5784 5782 5780 5778 5777 5775 5774 5773 5772 5771 5771 5771 5772 5773 5774 5775 5776 5778 5780 5782 5784 5787 5789 5792 5794 5797 5799 5802
5811 5809 5807 5805 5802 5800 5798 5795 5793 5790 5788 5786 5784 5782 5779 5777 5774 5772 5771 5769 5767 5766 5764 5763 5762 5761 5762 5763 5764 5765 5766 5767 5769 5771 5773 5775 5778 5781 5783 5786 5788 5791 5794
5805 5803 5800 5799 5796 5794 5792 5789 5786 5784 5781 5779 5777 5775 5772 5770 5767 5765 5763 5761 5759 5757 5756 5754 5753 5753 5753 5753 5754 5756 5757 5758 5760 5762 5764 5767 5769 5772 5774 5777 5780 5783 5785
5799 5797 5795 5793 5791 5788 5786 5783 5780 5777 5775 5772 5770 5768 5766 5764 5760 5757 5755 5752 5750 5748 5747 5746 5744 5744 5744 5745 5746 5747 5748 5749 5751 5753 5755 5758 5760 5763 5765 5768 5771 5774 5777
5793 5790 5788 5787 5784 5782 5779 5777 5774 5771 5768 5766 5763 5761 5759 5756 5753 5750 5746 5744 5742 5740 5739 5737 5736 5736 5736 5736 5737 5738 5740 5741 5742 5745 5747 5749 5751 5754 5756 5759 5762 5765 5768
5787 5784 5782 5780 5778 5775 5773 5770 5768 5765 5762 5759 5757 5754 5751 5749 5746 5744 5740 5737 5734 5732 5730 5729 5728 5728 5728 5728 5728 5730 5731 5732 5734 5736 5738 5740 5742 5744 5747 5750 5753 5756 5759
5781 5778 5776 5774 5771 5769 5766 5764 5761 5759 5756 5753 5750 5747 5744 5741 5739 5736 5733 5730 5727 5724 5722 5721 5720 5720 5719 5720 5720 5722 5723 5724 5725 5727 5730 5732 5733 5736 5738 5741 5743 5746 5749
5775 5772 5770 5768 5765 5762 5760 5758 5755 5752 5750 5747 5743 5741 5738 5735 5732 5729 5726 5723 5720 5717 5714 5713 5713 5712 5712 5712 5713 5714 5715 5716 5717 5719 5721 5723 5724 5726 5729 5731 5734 5737 5740
5769 5767 5764 5762 5759 5757 5754 5751 5749 5746 5743 5740 5737 5734 5731 5728 5725 5721 5718 5715 5712 5710 5708 5706 5705 5705 5705 5705 5705 5706 5707 5707 5709 5710 5712 5714 5715 5717 5719 5722 5724 5727 5730
5763 5760 5758 5756 5753 5751 5749 5746 5743 5740 5737 5734 5731 5728 5724 5721 5718 5714 5711 5708 5706 5703 5701 5699 5698 5697 5697 5697 5698 5698 5699 5699 5700 5702 5703 5705 5706 5708 5710 5712 5715 5718 5721
5757 5755 5753 5751 5748 5746 5743 5740 5737 5734 5731 5728 5725 5721 5718 5714 5711 5707 5703 5700 5698 5697 5695 5693 5691 5690 5690 5690 5690 5690 5690 5691 5692 5693 5694 5695 5697 5699 5701 5703 5705 5708 5711
5752 5750 5748 5745 5742 5740 5737 5734 5732 5728 5725 5722 5719 5715 5711 5707 5704 5700 5697 5694 5691 5690 5688 5687 5685 5684 5683 5682 5682 5682 5682 5682 5683 5684 5685 5686 5687 5689 5691 5693 5696 5698 5701
5748 5745 5743 5741 5738 5735 5732 5729 5726 5723 5720 5716 5713 5709 5705 5701 5697 5694 5690 5688 5685 5683 5681 5680 5678 5677 5676 5675 5675 5674 5674 5674 5674 5675 5676 5677 5678 5680 5682 5684 5686 5688 5691
5743 5741 5738 5736 5733 5730 5727 5724 5721 5718 5714 5710 5707 5703 5699 5695 5691 5688 5685 5682 5679 5676 5675 5673 5672 5670 5669 5668 5667 5666 5666 5665 5666 5666 5667 5668 5669 5671 5672 5674 5676 5678 5681
5739 5737 5734 5731 5728 5725 5722 5719 5716 5712 5709 5705 5701 5697 5693 5689 5686 5682 5679 5676 5673 5671 5668 5667 5665 5664 5662 5661 5659 5659 5658 5657 5657 5657 5658 5659 5660 5661 5662 5664 5666 5668 5670
5735 5733 5730 5727 5724 5721 5717 5714 5711 5707 5703 5699 5695 5691 5687 5683 5680 5676 5673 5670 5667 5664 5662 5660 5658 5657 5655 5653 5652 5651 5650 5649 5649 5649 5649 5650 5651 5652 5653 5654 5656 5658 5660
5731 5728 5726 5723 5720 5717 5713 5709 5706 5702 5698 5694 5690 5685 5681 5677 5673 5669 5666 5663 5660 5658 5655 5653 5652 5650 5648 5646 5644 5643 5642 5642 5641 5641 5641 5642 5642 5643 5644 5645 5646 5648 5650
5726 5724 5722 5719 5716 5713 5709 5705 5701 5697 5693 5689 5685 5680 5676 5671 5667 5663 5659 5656 5653 5650 5648 5646 5644 5642 5640 5639 5637 5636 5635 5634 5634 5633 5633 5634 5634 5635 5636 5636 5637 5639 5641
5723 5720 5718 5715 5712 5709 5705 5701 5697 5693 5689 5684 5680 5676 5671 5666 5662 5657 5653 5649 5646 5643 5641 5639 5637 5634 5632 5631 5629 5628 5626 5626 5625 5625 5624 5625 5625 5626 5627 5628 5629 5630 5631
5719 5717 5714 5712 5709 5705 5701 5697 5693 5689 5684 5680 5675 5671 5666 5661 5656 5652 5647 5643 5639 5636 5634 5631 5629 5627 5625 5623 5621 5619 5618 5617 5617 5616 5616 5617 5617 5617 5618 5619 5619 5620 5621
5716 5714 5711 5708 5705 5702 5698 5694 5690 5685 5681 5676 5671 5666 5661 5656 5651 5646 5642 5638 5634 5630 5627 5624 5622 5619 5617 5615 5613 5611 5610 5609 5609 5608 5607 5608 5609 5609 5609 5610 5610 5611 5612
5713 5711 5708 5705 5702 5699 5695 5691 5687 5682 5677 5672 5667 5661 5656 5651 5646 5641 5637 5632 5628 5625 5621 5618 5615 5612 5610 5607 5605 5604 5602 5601 5600 5600 5599 5599 5600 5600 5600 5601 5601 5601 5602